timestamp,wind_dir_avg,wind_spd_avg,wind_spd_max_dir,wind_spd_gust,battery_voltage,lat,long
2022-07-12 00:04:00+00:00,221.0,10.4,223.0,12.38,12.97,47.59359,-54.27349
2022-07-12 00:14:01+00:00,223.0,10.04,219.0,12.17,12.49,47.59359,-54.27349
2022-07-12 00:24:01+00:00,222.0,10.36,224.0,12.17,12.49,47.59359,-54.27349
2022-07-12 00:34:01+00:00,222.0,8.84,225.0,10.95,12.49,47.59359,-54.27349
2022-07-12 00:44:01+00:00,222.0,9.95,223.0,12.08,12.49,47.59359,-54.27349
2022-07-12 00:54:01+00:00,221.0,9.27,228.0,11.56,12.49,47.59359,-54.27349
2022-07-12 01:04:01+00:00,221.0,11.34,225.0,12.93,12.49,47.59359,-54.27349
2022-07-12 01:14:01+00:00,222.0,10.78,225.0,12.04,12.33,47.59359,-54.27349
2022-07-12 01:24:01+00:00,221.0,10.17,226.0,11.81,12.33,47.59359,-54.27349
2022-07-12 01:34:01+00:00,216.0,8.24,223.0,10.05,12.33,47.59359,-54.27349
2022-07-12 01:44:01+00:00,219.0,8.73,229.0,11.87,12.33,47.59359,-54.27349
2022-07-12 01:54:01+00:00,218.0,8.81,225.0,10.71,12.33,47.59359,-54.27349
2022-07-12 02:04:01+00:00,217.0,8.92,226.0,11.88,12.33,47.59359,-54.27349
2022-07-12 02:14:00+00:00,216.0,7.17,222.0,8.39,12.33,47.59359,-54.27349
2022-07-12 02:24:00+00:00,218.0,7.81,228.0,9.84,12.33,47.59359,-54.27349
2022-07-12 02:34:00+00:00,209.0,6.84,214.0,7.58,12.33,47.59359,-54.27349
2022-07-12 02:44:00+00:00,211.0,6.9,217.0,7.6,12.33,47.59359,-54.27349
2022-07-12 02:54:00+00:00,218.0,5.35,214.0,6.23,12.33,47.59359,-54.27349
2022-07-12 03:04:00+00:00,216.0,6.07,216.0,6.89,12.33,47.59359,-54.27349
2022-07-12 03:14:00+00:00,230.0,6.45,240.0,9.31,12.33,47.59359,-54.27349
2022-07-12 03:24:00+00:00,231.0,5.13,233.0,5.66,12.33,47.59359,-54.27349
2022-07-12 03:34:00+00:00,222.0,5.95,220.0,6.62,12.33,47.59359,-54.27349
2022-07-12 03:44:00+00:00,228.0,7.04,239.0,9.16,12.33,47.59359,-54.27349
2022-07-12 03:54:00+00:00,226.0,7.47,241.0,10.06,12.33,47.59359,-54.27349
2022-07-12 04:04:00+00:00,219.0,7.27,222.0,8.18,12.33,47.59359,-54.27349
2022-07-12 04:14:01+00:00,219.0,6.81,227.0,7.52,12.41,47.59359,-54.27349
2022-07-12 04:24:01+00:00,222.0,6.04,221.0,6.71,12.41,47.59359,-54.27349
2022-07-12 04:34:01+00:00,225.0,5.69,231.0,6.61,12.41,47.59359,-54.27349
2022-07-12 04:44:01+00:00,221.0,5.41,217.0,6.13,12.41,47.59359,-54.27349
2022-07-12 04:54:01+00:00,224.0,4.78,222.0,5.35,12.41,47.59359,-54.27349
2022-07-12 05:04:01+00:00,217.0,5.46,218.0,5.94,12.41,47.59359,-54.27349
2022-07-12 05:14:01+00:00,216.0,4.86,221.0,5.43,12.33,47.59359,-54.27349
2022-07-12 05:24:01+00:00,215.0,5.19,218.0,5.71,12.33,47.59359,-54.27349
2022-07-12 05:34:01+00:00,213.0,5.42,215.0,6.05,12.33,47.59359,-54.27349
2022-07-12 05:44:01+00:00,220.0,5.75,221.0,6.41,12.33,47.59359,-54.27349
2022-07-12 05:54:01+00:00,218.0,5.82,217.0,6.42,12.33,47.59359,-54.27349
2022-07-12 06:04:01+00:00,219.0,5.95,217.0,6.69,12.33,47.59359,-54.27349
2022-07-12 06:14:00+00:00,214.0,6.86,217.0,7.33,12.33,47.59359,-54.27349
2022-07-12 06:24:00+00:00,216.0,5.97,215.0,6.71,12.33,47.59359,-54.27349
2022-07-12 06:34:00+00:00,224.0,4.64,227.0,5.34,12.33,47.59359,-54.27349
2022-07-12 06:44:00+00:00,213.0,5.33,216.0,5.72,12.33,47.59359,-54.27349
2022-07-12 06:54:00+00:00,214.0,5.53,215.0,6.03,12.33,47.59359,-54.27349
2022-07-12 07:04:00+00:00,214.0,5.55,214.0,6.21,12.33,47.59359,-54.27349
2022-07-12 07:14:00+00:00,214.0,6.45,215.0,7.38,12.25,47.59359,-54.27349
2022-07-12 07:24:00+00:00,215.0,5.58,211.0,6.62,12.25,47.59359,-54.27349
2022-07-12 07:34:00+00:00,216.0,6.06,216.0,6.79,12.25,47.59359,-54.27349
2022-07-12 07:44:00+00:00,215.0,7.6,225.0,9.06,12.25,47.59359,-54.27349
2022-07-12 07:54:00+00:00,213.0,6.75,213.0,7.25,12.25,47.59359,-54.27349
2022-07-12 08:04:00+00:00,215.0,6.22,218.0,7.73,12.25,47.59359,-54.27349
2022-07-12 08:14:00+00:00,215.0,6.31,211.0,7.09,12.17,47.59359,-54.27349
2022-07-12 08:24:00+00:00,210.0,6.78,209.0,7.44,12.17,47.59359,-54.27349
2022-07-12 08:34:00+00:00,214.0,6.82,217.0,7.68,12.17,47.59359,-54.27349
2022-07-12 08:44:00+00:00,221.0,6.67,230.0,8.33,12.17,47.59359,-54.27349
2022-07-12 08:54:00+00:00,216.0,6.23,217.0,6.92,12.17,47.59359,-54.27349
2022-07-12 09:04:00+00:00,216.0,5.36,216.0,6.01,12.17,47.59359,-54.27349
2022-07-12 09:14:00+00:00,216.0,5.2,216.0,5.84,12.65,47.59359,-54.27349
2022-07-12 09:24:00+00:00,214.0,5.04,217.0,5.64,12.65,47.59359,-54.27349
2022-07-12 09:34:00+00:00,213.0,5.93,213.0,6.45,12.65,47.59359,-54.27349
2022-07-12 09:44:00+00:00,218.0,5.9,216.0,6.59,12.65,47.59359,-54.27349
2022-07-12 09:54:00+00:00,222.0,6.07,232.0,8.01,12.65,47.59359,-54.27349
2022-07-12 10:04:00+00:00,217.0,6.61,217.0,7.47,12.65,47.59359,-54.27349
2022-07-12 10:14:00+00:00,224.0,9.29,231.0,11.99,13.37,47.59359,-54.27349
2022-07-12 10:24:00+00:00,221.0,8.37,227.0,10.48,13.37,47.59359,-54.27349
2022-07-12 10:34:00+00:00,228.0,10.43,233.0,12.41,13.37,47.59359,-54.27349
2022-07-12 10:44:00+00:00,227.0,8.83,238.0,11.14,13.37,47.59359,-54.27349
2022-07-12 10:54:00+00:00,227.0,7.71,243.0,10.71,13.37,47.59359,-54.27349
2022-07-12 11:04:00+00:00,225.0,8.01,233.0,10.38,13.37,47.59359,-54.27349
2022-07-12 11:14:01+00:00,219.0,7.05,227.0,9.06,13.68,47.59359,-54.27349
2022-07-12 11:24:01+00:00,222.0,7.66,230.0,11.13,13.68,47.59359,-54.27349
2022-07-12 11:34:01+00:00,220.0,7.65,231.0,9.86,13.68,47.59359,-54.27349
2022-07-12 11:44:01+00:00,211.0,8.01,225.0,9.62,13.68,47.59359,-54.27349
2022-07-12 11:54:01+00:00,217.0,7.76,231.0,10.37,13.68,47.59359,-54.27349
2022-07-12 12:04:01+00:00,209.0,8.32,221.0,10.59,13.68,47.59359,-54.27349
2022-07-12 12:14:01+00:00,209.0,7.74,207.0,8.56,13.68,47.59359,-54.27349
2022-07-12 12:24:01+00:00,210.0,8.49,228.0,10.72,13.68,47.59359,-54.27349
2022-07-12 12:34:01+00:00,206.0,8.33,212.0,10.07,13.68,47.59359,-54.27349
2022-07-12 12:44:01+00:00,207.0,8.63,217.0,10.38,13.68,47.59359,-54.27349
2022-07-12 12:54:01+00:00,204.0,8.23,203.0,9.46,13.68,47.59359,-54.27349
2022-07-12 13:04:01+00:00,204.0,8.48,204.0,9.58,13.68,47.59359,-54.27349
2022-07-12 13:14:01+00:00,204.0,7.79,205.0,8.77,14.24,47.59359,-54.27349
2022-07-12 13:24:01+00:00,203.0,8.05,206.0,9.12,14.24,47.59359,-54.27349
2022-07-12 13:34:01+00:00,199.0,8.18,203.0,9.35,14.24,47.59359,-54.27349
2022-07-12 13:44:01+00:00,200.0,8.09,202.0,8.98,14.24,47.59359,-54.27349
2022-07-12 13:54:01+00:00,200.0,8.58,200.0,9.39,14.24,47.59359,-54.27349
2022-07-12 14:04:01+00:00,203.0,8.26,206.0,9.41,14.24,47.59359,-54.27349
2022-07-12 14:14:01+00:00,199.0,7.51,203.0,8.21,14.32,47.59359,-54.27349
2022-07-12 14:24:01+00:00,199.0,7.13,205.0,8.46,14.32,47.59359,-54.27349
2022-07-12 14:34:01+00:00,200.0,7.96,204.0,9.29,14.32,47.59359,-54.27349
2022-07-12 14:44:01+00:00,201.0,8.1,204.0,8.88,14.32,47.59359,-54.27349
2022-07-12 14:54:01+00:00,199.0,8.24,199.0,9.22,14.32,47.59359,-54.27349
2022-07-12 15:04:01+00:00,204.0,8.04,208.0,8.72,14.32,47.59359,-54.27349
2022-07-12 15:14:00+00:00,201.0,7.91,201.0,8.76,13.84,47.59359,-54.27349
2022-07-12 15:24:00+00:00,203.0,8.28,206.0,9.15,13.84,47.59359,-54.27349
2022-07-12 15:34:00+00:00,206.0,9.06,219.0,10.99,13.84,47.59359,-54.27349
2022-07-12 15:44:00+00:00,204.0,8.8,205.0,9.89,13.84,47.59359,-54.27349
2022-07-12 15:54:00+00:00,201.0,8.0,203.0,8.91,13.84,47.59359,-54.27349
2022-07-12 16:04:00+00:00,201.0,8.08,200.0,9.1,13.84,47.59359,-54.27349
2022-07-12 16:14:00+00:00,206.0,7.48,207.0,8.74,14.32,47.59359,-54.27349
2022-07-12 16:24:00+00:00,206.0,7.49,219.0,8.44,14.32,47.59359,-54.27349
2022-07-12 16:34:00+00:00,200.0,8.07,199.0,8.72,14.32,47.59359,-54.27349
2022-07-12 16:44:00+00:00,203.0,8.15,202.0,9.08,14.32,47.59359,-54.27349
2022-07-12 16:54:00+00:00,207.0,8.33,209.0,9.08,14.32,47.59359,-54.27349
2022-07-12 17:04:00+00:00,216.0,9.93,221.0,12.46,14.32,47.59359,-54.27349
2022-07-12 17:14:00+00:00,213.0,8.38,225.0,10.68,13.84,47.59359,-54.27349
2022-07-12 17:24:00+00:00,220.0,9.9,224.0,12.38,13.84,47.59359,-54.27349
2022-07-12 17:34:00+00:00,222.0,9.7,228.0,12.69,13.84,47.59359,-54.27349
2022-07-12 17:44:00+00:00,223.0,9.4,226.0,11.66,13.84,47.59359,-54.27349
2022-07-12 17:54:00+00:00,219.0,6.7,222.0,7.77,13.84,47.59359,-54.27349
2022-07-12 18:04:00+00:00,218.0,7.45,224.0,10.52,13.84,47.59359,-54.27349
2022-07-12 18:14:00+00:00,219.0,7.69,226.0,10.06,13.68,47.59359,-54.27349
2022-07-12 18:24:00+00:00,222.0,8.16,232.0,9.39,13.68,47.59359,-54.27349
2022-07-12 18:34:00+00:00,219.0,8.7,220.0,9.98,13.68,47.59359,-54.27349
2022-07-12 18:44:00+00:00,216.0,8.74,217.0,9.96,13.68,47.59359,-54.27349
2022-07-12 18:54:00+00:00,216.0,8.8,217.0,10.36,13.68,47.59359,-54.27349
2022-07-12 19:04:00+00:00,216.0,7.23,219.0,8.72,13.68,47.59359,-54.27349
2022-07-12 19:14:01+00:00,213.0,7.25,213.0,8.07,13.68,47.59359,-54.27349
2022-07-12 19:24:01+00:00,209.0,7.15,204.0,8.37,13.68,47.59359,-54.27349
2022-07-12 19:34:01+00:00,208.0,6.81,208.0,7.81,13.68,47.59359,-54.27349
2022-07-12 19:44:01+00:00,209.0,7.27,211.0,8.68,13.68,47.59359,-54.27349
2022-07-12 19:54:01+00:00,210.0,7.33,203.0,9.17,13.68,47.59359,-54.27349
2022-07-12 20:04:01+00:00,211.0,7.94,217.0,8.72,13.68,47.59359,-54.27349
2022-07-12 20:14:01+00:00,211.0,8.17,216.0,9.43,13.6,47.59359,-54.27349
2022-07-12 20:24:01+00:00,210.0,7.79,210.0,8.63,13.6,47.59359,-54.27349
2022-07-12 20:34:01+00:00,210.0,8.04,221.0,10.6,13.6,47.59359,-54.27349
2022-07-12 20:44:01+00:00,208.0,7.96,215.0,10.08,13.6,47.59359,-54.27349
2022-07-12 20:54:01+00:00,208.0,6.84,206.0,7.77,13.6,47.59359,-54.27349
2022-07-12 21:04:01+00:00,213.0,7.54,214.0,8.68,13.6,47.59359,-54.27349
2022-07-12 21:14:01+00:00,216.0,7.84,219.0,8.69,13.68,47.59359,-54.27349
2022-07-12 21:24:01+00:00,218.0,6.76,217.0,7.72,13.68,47.59359,-54.27349
2022-07-12 21:34:01+00:00,224.0,6.56,219.0,7.53,13.68,47.59359,-54.27349
2022-07-12 21:44:01+00:00,221.0,5.78,218.0,6.86,13.68,47.59359,-54.27349
2022-07-12 21:54:01+00:00,218.0,6.64,216.0,8.61,13.68,47.59359,-54.27349
2022-07-12 22:04:01+00:00,226.0,4.7,227.0,6.9,13.68,47.59359,-54.27349
2022-07-12 22:14:00+00:00,227.0,4.22,235.0,5.21,13.44,47.59359,-54.27349
2022-07-12 22:24:00+00:00,215.0,6.69,216.0,7.78,13.44,47.59359,-54.27349
2022-07-12 22:34:00+00:00,221.0,6.42,224.0,7.34,13.44,47.59359,-54.27349
2022-07-12 22:44:00+00:00,220.0,6.35,220.0,7.5,13.44,47.59359,-54.27349
2022-07-12 22:54:00+00:00,215.0,6.52,214.0,7.24,13.44,47.59359,-54.27349
2022-07-12 23:04:00+00:00,213.0,6.08,214.0,6.97,13.44,47.59359,-54.27349
2022-07-12 23:14:00+00:00,207.0,5.72,208.0,6.61,12.97,47.59359,-54.27349
2022-07-12 23:24:00+00:00,222.0,6.25,225.0,7.2,12.97,47.59359,-54.27349
2022-07-12 23:34:00+00:00,220.0,5.94,224.0,7.04,12.97,47.59359,-54.27349
2022-07-12 23:44:00+00:00,215.0,6.28,215.0,6.78,12.97,47.59359,-54.27349
2022-07-12 23:54:00+00:00,217.0,5.25,220.0,6.25,12.97,47.59359,-54.27349
